Regional Weather Roundup
Issued by NWS

Home | Current Version | Previous Version | Text Only | Print | Product List | Glossary On
Versions: 1 2 3 4 5 6 7 8 9 10 11 12 13 14 15 16 17 18 19 20 21 22 23 24 25 26 27
000
ASUS44 KJAN 260010
RWRMS

MISSISSIPPI HOURLY WEATHER ROUNDUP
NATIONAL WEATHER SERVICE JACKSON MS
700 PM CDT FRI MAY 25 2018

NOTE: "FAIR: INDICATES FEW OR NO CLOUDS BELOW 12,000 FEET WITH NO
SIGNIFICANT WEATHER AND/OR OBSTRUCTIONS TO VISIBILITY.

MSZ001>002-007>008-010>013-018>021-025>028-034>036-260100-
NORTHWEST MISSISSIPPI

CITY           SKY/WX    TMP DP  RH WIND       PRES   REMARKS
BATESVILLE       N/A    N/A N/A N/A MISG        N/A
CLARKSDALE     SUNNY     79  77  94 CALM      29.88S
CLEVELAND      LGT RAIN  73  73 100 S8        29.89F
GREENWOOD      FAIR      80  72  76 S9        29.90R
6HR MIN TEMP:  75; 6HR MAX TEMP:  83; 6HR PCP:  0.01;

GREENVILLE     TSTM      71  68  90 S5        29.87F FOG
6HR MIN TEMP:  71; 6HR MAX TEMP:  84; 6HR PCP:  0.03;

OLIVE BRANCH   PTSUNNY   72  72 100 E6        29.90R
TUNICA           N/A     73  70  88 CALM      29.90R
WINONA         FAIR      76  71  84 SE5       29.91R
$$

MSZ003>006-009-014>017-022>024-029>033-037>039-260100-
NORTHEAST MISSISSIPPI

CITY           SKY/WX    TMP DP  RH WIND       PRES   REMARKS
ABERDEEN         N/A     81  81 100 SW5       29.91R HX  91
COLUMBUS AFB   FAIR      79  74  84 SW7       29.89S
6HR MIN TEMP:  79; 6HR MAX TEMP:  87;

CORINTH          N/A     79  72  78 CALM      29.89S
GOLDN TRIANGLE FAIR      76  70  82 W7        29.91F
STARKVILLE     DRIZZLE   72  70  94 W3        29.93R
TUPELO         PTSUNNY   85  65  51 CALM      29.89R
6HR MIN TEMP:  84; 6HR MAX TEMP:  85;

$$

MSZ040-058-260100-
CENTRAL MISSISSIPPI

CITY           SKY/WX    TMP DP  RH WIND       PRES   REMARKS
JACKSON INTL   PTSUNNY   73  71  93 S6        29.92F
6HR MIN TEMP:  70; 6HR MAX TEMP:  89; 6HR PCP:  1.39;

JACKSON HAWKNS FAIR      72  71  97 SE6         N/A
6HR MIN TEMP:  68; 6HR MAX TEMP:  89; 6HR PCP:  0.88;

MADISON        FAIR      72  70  94 CALM      29.92R
MERIDIAN KEY   TSTM      73  69  87 SW8       29.95R FOG
6HR MIN TEMP:  72; 6HR MAX TEMP:  88; 6HR PCP:  1.15;

MERIDIAN NAS   TSTM      71  68  90 SW9       29.93S
6HR MIN TEMP:  71; 6HR MAX TEMP:  89; 6HR PCP:  0.08;

RAYMOND        FAIR      75  72  88 SE3       29.91F
VICKSBURG VKS  PTCLDY    72  68  88 CALM        N/A
$$

MSZ059>079-260100-
SOUTH MISSISSIPPI

CITY           SKY/WX    TMP DP  RH WIND       PRES   REMARKS
COLUMBIA       FAIR      73  70  88 CALM      29.96F
HATTIESBURG    FAIR      74  70  87 SW3       29.94F
6HR MIN TEMP:  74; 6HR MAX TEMP:  87; 6HR PCP: TRACE;

LAUREL         FAIR      72  71  99 CALM      29.95S
MCCOMB         LGT RAIN  71  68  90 W3        29.93F
6HR MIN TEMP:  70; 6HR MAX TEMP:  89; 6HR PCP:  0.76;

NATCHEZ        FAIR      79  72  79 SE12      29.90F
6HR MIN TEMP:  74; 6HR MAX TEMP:  84; 6HR PCP:  0.28;

PINE BELT      FAIR      72  69  90 S5        29.95S
6HR MIN TEMP:  72; 6HR MAX TEMP:  86; 6HR PCP: TRACE;

$$

MSZ080>082-260100-
COASTAL MISSISSIPPI

CITY           SKY/WX    TMP DP  RH WIND       PRES   REMARKS
BILOXI         LGT RAIN  77  72  83 N5        29.92R
6HR MIN TEMP:  78; 6HR MAX TEMP:  87; 6HR PCP: TRACE;

PASCAGOULA     FAIR      81  71  71 CALM      29.93R
6HR MIN TEMP:  70; 6HR MAX TEMP:  82; 6HR PCP:  0.07;

GULFPORT       MOCLDY    79  73  82 NW5       29.92S
6HR MIN TEMP:  79; 6HR MAX TEMP:  87;

$$

LAZ007>009-015>016-023>026-260100-
NORTHEAST LOUISIANA

CITY           SKY/WX    TMP DP  RH WIND       PRES   REMARKS
BASTROP        TSTM      78  73  85 E12       29.91R
TALLULAH/VBURG LGT RAIN  73  70  90 S8        29.88F
6HR MIN TEMP:  73; 6HR MAX TEMP:  89; 6HR PCP:  0.02;

VIDALIA        FAIR      80  70  71 S9        29.89F
$$




USA.gov is the U.S. government's official web portal to all federal, state and local government web resources and services.